FW9031 Weather Reports


Display with metric or nautical units.
time (UTC)temp
F
wind
direction
speed
MPH
gust
MPH
rain 1hr
in
rain 24hr
in
rain mn
in
humidity
%
barometer
mb
20260507084600 46 0 0.0 0.0 0.00 0.71 0.16 95 1006.6
20260507083056 47 0 0.0 0.0 0.00 0.71 0.16 95 1006.2
20260507081555 47 0 0.0 0.0 0.00 0.71 0.16 95 1006.2
20260507080051 48 0 0.0 1.0 0.00 0.71 0.16 95 1006.0
20260507074606 48 0 0.0 0.0 0.00 0.71 0.16 96 1006.2
20260507073054 48 0 0.0 0.0 0.00 0.71 0.16 95 1006.3
20260507071554 48 0 0.0 0.0 0.00 0.71 0.16 95 1005.9
20260507070109 48 0 0.0 1.0 0.00 0.71 0.16 95 1005.8
20260507064602 49 0 0.0 1.0 0.00 0.71 0.16 95 1005.6
20260507063058 49 178 0.0 3.0 0.00 0.71 0.16 95 1005.5
20260507061553 49 0 0.0 1.0 0.00 0.71 0.16 96 1005.3
20260507060055 50 0 0.0 0.0 0.01 0.71 0.16 96 1005.1
20260507054554 50 0 0.0 0.0 0.06 0.71 0.16 96 1005.1
20260507053056 50 178 0.0 1.0 0.14 0.71 0.16 96 1005.3
20260507051557 51 0 0.0 0.0 0.15 0.71 0.16 96 1005.4
20260507050056 51 0 0.0 0.0 0.15 0.70 0.15 96 1005.3
20260507044559 51 0 0.0 2.0 0.10 0.65 0.10 96 1005.6
20260507043049 52 0 0.0 0.0 0.03 0.57 0.02 96 1005.1
20260507041553 52 0 0.0 1.0 0.03 0.56 0.01 96 1004.8
20260507034557 53 178 0.0 2.0 0.03 0.55 0.55 96 1004.8
20260507033102 53 0 0.0 1.0 0.02 0.54 0.54 96 1004.7
20260507031604 53 0 0.0 0.0 0.01 0.52 0.52 96 1004.7
20260507030053 53 0 0.0 6.0 0.02 0.52 0.52 96 1004.5
20260507024556 53 178 1.0 6.0 0.03 0.52 0.52 96 1004.6
20260507023055 53 0 1.0 7.0 0.05 0.52 0.52 96 1004.3
20260507021553 53 0 1.0 6.0 0.06 0.52 0.52 96 1004.3
20260507020059 53 178 1.0 6.0 0.06 0.51 0.51 96 1004.5
20260507014602 53 178 1.0 10.0 0.04 0.49 0.49 96 1004.8
20260507013111 54 178 2.0 9.0 0.02 0.47 0.47 96 1004.8
20260507011603 54 178 1.0 10.0 0.01 0.46 0.46 96 1005.1
20260507004554 54 178 3.0 14.0 0.00 0.45 0.45 96 1005.2
20260507003052 54 178 2.0 10.0 0.00 0.45 0.45 96 1005.4
20260507001558 54 178 4.0 15.0 0.00 0.45 0.45 96 1005.2
20260507000055 54 178 2.0 11.0 0.00 0.45 0.45 96 1005.2
20260506234554 54 178 2.0 11.0 0.00 0.45 0.45 95 1005.5
20260506233104 54 178 3.0 14.0 0.00 0.45 0.45 95 1005.4
20260506231600 54 178 2.0 17.0 0.01 0.45 0.45 95 1005.6
20260506230104 54 178 2.0 10.0 0.02 0.45 0.45 95 1005.8
20260506224553 54 0 5.0 17.0 0.02 0.45 0.45 95 1005.9
20260506223053 54 178 1.0 9.0 0.03 0.45 0.45 95 1006.0
20260506221558 54 178 1.0 8.0 0.03 0.44 0.44 95 1006.4
20260506220056 54 178 1.0 10.0 0.04 0.43 0.43 95 1006.4
20260506214552 54 178 1.0 16.0 0.06 0.43 0.43 95 1006.5
20260506213052 54 178 3.0 10.0 0.07 0.42 0.42 95 1006.6
20260506211608 54 178 4.0 10.0 0.09 0.41 0.41 94 1006.6
20260506210052 54 178 1.0 11.0 0.08 0.39 0.39 94 1006.9
20260506204551 54 178 4.0 10.0 0.10 0.37 0.37 94 1006.9
20260506203052 55 178 2.0 12.0 0.15 0.35 0.35 94 1006.9
20260506201553 55 178 2.0 12.0 0.17 0.32 0.32 94 1007.0
20260506200055 55 178 3.0 10.0 0.23 0.31 0.31 94 1007.1
20260506194556 54 178 1.0 6.0 0.24 0.27 0.27 94 1007.4
20260506193054 55 178 0.0 7.0 0.19 0.20 0.20 93 1008.0
20260506191553 55 178 4.0 9.0 0.15 0.15 0.15 92 1007.3
20260506190057 55 0 4.0 16.0 0.08 0.08 0.08 91 1007.4
20260506184553 56 178 4.0 11.0 0.03 0.03 0.03 88 1007.3
20260506183048 58 178 4.0 12.0 0.01 0.01 0.01 85 1007.5
20260506181559 59 178 3.0 9.0 0.00 0.00 0.00 81 1007.2
20260506180055 60 178 3.0 11.0 0.00 0.00 0.00 81 1007.5
20260506174552 60 178 3.0 9.0 0.00 0.00 0.00 81 1007.7
20260506173108 60 178 3.0 14.0 0.00 0.00 0.00 80 1008.0
20260506171558 61 178 2.0 14.0 0.00 0.00 0.00 80 1008.2
20260506170105 61 178 2.0 9.0 0.00 0.00 0.00 80 1008.6
20260506164613 61 178 3.0 9.0 0.00 0.00 0.00 80 1008.9
20260506163102 61 178 3.0 11.0 0.00 0.00 0.00 80 1009.1
20260506161553 61 178 3.0 10.0 0.00 0.00 0.00 80 1009.4
20260506160106 61 178 2.0 6.0 0.00 0.00 0.00 81 1009.4
20260506154555 60 178 5.0 10.0 0.00 0.00 0.00 81 1009.7
20260506153055 60 178 4.0 14.0 0.00 0.00 0.00 80 1009.6
20260506151553 61 178 1.0 9.0 0.00 0.00 0.00 80 1009.5
20260506150054 61 178 2.0 8.0 0.00 0.00 0.00 80 1009.3
20260506144553 61 178 2.0 9.0 0.00 0.00 0.00 80 1009.1
20260506143055 61 178 3.0 9.0 0.00 0.00 0.00 80 1009.4
20260506141606 60 178 2.0 8.0 0.00 0.00 0.00 80 1009.7
20260506140055 60 178 2.0 6.0 0.00 0.00 0.00 81 1009.8
20260506134553 59 178 2.0 5.0 0.00 0.00 0.00 81 1009.7
20260506133059 58 178 1.0 5.0 0.00 0.00 0.00 82 1009.6
20260506131555 58 178 2.0 7.0 0.00 0.00 0.00 82 1009.6
20260506130054 58 178 1.0 5.0 0.00 0.00 0.00 82 1009.7
20260506124553 57 178 0.0 5.0 0.00 0.00 0.00 83 1009.7
20260506123055 56 178 0.0 6.0 0.00 0.00 0.00 84 1009.8
20260506121602 55 178 1.0 6.0 0.00 0.00 0.00 85 1010.1
20260506120118 55 178 3.0 8.0 0.00 0.00 0.00 85 1010.0
20260506114551 55 178 2.0 6.0 0.00 0.00 0.00 85 1010.7
20260506113051 55 178 1.0 7.0 0.00 0.00 0.00 85 1010.5
20260506111550 54 178 0.0 3.0 0.00 0.00 0.00 85 1010.3
20260506110056 53 178 0.0 3.0 0.00 0.00 0.00 86 1010.2
20260506104552 53 178 0.0 2.0 0.00 0.00 0.00 86 1010.2
20260506103054 53 0 0.0 1.0 0.00 0.00 0.00 87 1010.3
20260506101553 52 0 0.0 0.0 0.00 0.00 0.00 87 1010.2
20260506100057 52 0 0.0 2.0 0.00 0.00 0.00 87 1010.6
20260506094555 52 178 0.0 2.0 0.00 0.00 0.00 87 1010.3
20260506093054 52 0 0.0 0.0 0.00 0.00 0.00 88 1010.4
20260506091552 52 178 0.0 0.0 0.00 0.00 0.00 88 1010.0
20260506090055 52 0 0.0 0.0 0.00 0.00 0.00 88 1009.8